sat.trackr.live / text

‹ back to catalog

STARLINK-34204

NORAD 66213 · 2025-244H

PAYLOAD ACTIVE UNKNOWN

§ Identity

Operator
Country
US
Launch date
2025-10-28
Launch site
AFWTR
Launch vehicle
Mass (kg)
RCS (m²)

Purposes: comms

External: N2YO · Heavens-Above · Gunter

§ Orbital elements

Epoch: 2026-05-24T23:21:49.932576Z

Period
94.11 min
Inclination
53.1584°
Eccentricity
0.0001135
Mean motion
15.30189671 rev/d
Perigee alt
474.5 km
Apogee alt
476.0 km
Semi-major
6,853.4 km
B*
-7.2389e-5
RAAN
235.2448°
Arg perigee
96.5593°
Mean anomaly
263.5537°
Rev number
3,334

§ Raw data

STARLINK-342041 66213U 25244H   26144.97349459 -.00002502  00000+0 -72389-4 0  99952 66213  53.1584 235.2448 0001135  96.5593 263.5537 15.30189671 33346

JSON: /api/v1/satellites/66213 · /tle

For live sub-satellite position, see the globe view (requires WebGL).

§ Visibility from observer

Set your observer location to see the next 7 days of passes ≥ 10°. The values pass through the URL so the page stays shareable.

No JS? Fill the form by hand. The geolocation button needs JavaScript.